Rbgn^[z[y[W
メイン
   新天体発見情報
     Comet P/2012 S2 = 2021 L5 (La Sagra)
投稿するにはまず登録を

フラット表示 前のトピック | 次のトピック
投稿者 スレッド
佐藤裕久
投稿日時: 2021-7-25 22:39
モデレータ
登録日: 2005-6-12
居住地: 日本
投稿: 2661
オンライン
Comet P/2012 S2 = 2021 L5 (La Sagra)

6月6日UT、Pan-STARRS1(F51)で偶然に、P/2012 S2(CBET 3239を参照)を検出した。
R. Weryk (西オンタリオ大学,物理および天文学科)はPan-STARRS1とPan-STARRS2(F52)よる
検出前(2020年4月26日〜6月24日)の観測を確認した。また、6月30日に、ATLAS-MLO (T08)、
7月3日にiTelescope Obs. Siding Spring (Q62)で佐藤英貴氏と7月7日にCampo dos Amarais 
Obs. (X74)のL. S. Amaralはそれぞれ独立して検出した。

検出位置は次のとおり、

     2020 UT             R.A. (2000) Decl.       Mag.
     Apr. 26.44349   14 58 02.26   -15 33 51.0   23.2
          26.45443   14 58 01.84   -15 33 48.9   22.6
          26.46537   14 58 01.38   -15 33 47.1   21.8
          27.43850   14 57 21.53   -15 31 36.0   22.5
          27.44938   14 57 21.08   -15 31 34.4   23.4
     May  13.37001   14 46 02.97   -14 53 41.6   22.1
          13.38249   14 46 02.39   -14 53 40.5   22.7
          13.39484   14 46 01.91   -14 53 37.8   20.0
          20.40207   14 41 05.34   -14 36 54.3   22.6
     June 10.31198   14 28 19.23   -13 55 08.4   24.0
          10.32495   14 28 18.81   -13 55 07.2   22.5
          10.33792   14 28 18.38   -13 55 06.5   23.8
          21.28654   14 23 33.55   -13 41 52.1   23.1
          21.29840   14 23 33.29   -13 41 52.2   23.6
          21.31023   14 23 33.02   -13 41 52.0   22.8
          24.28593   14 22 32.90   -13 39 36.0   23.2
          24.29695   14 22 32.67   -13 39 35.5   23.7
          24.30800   14 22 32.44   -13 39 35.5   23.5
          24.31906   14 22 32.25   -13 39 34.7   23.1

     2021 UT             R.A. (2000) Decl.       Mag.
     June  6.52546   20 07 30.31   -31 14 10.4   20.6
           6.53644   20 07 30.55   -31 14 15.4   20.7
           6.54744   20 07 30.79   -31 14 20.3   20.5


NK 3664およびICQ's 2021 Comet Handbookの中野主一氏の予報に対し、Delta(T)は、-0.11 day
であった。
MPC 82720の予報に対するDelta(T)は、-0.10 dayであった。
彗星年表2020の佐藤裕久の予報に対する修正値は、Delta(T) = -0.11 dayであった。

MPCの連結軌道要素と位置推算表は次のとおり、

Orbital elements:
    P/2012 S2 (La Sagra)                                                        
Epoch 2012 Aug. 21.0 TT = JDT 2456160.5                                         
T 2012 Aug. 18.87555 TT                                 Rudenko                 
q   1.3711862            (2000.0)            P               Q                  
n   0.10568554     Peri.  312.07309     +0.99007001     -0.07555109             
a   4.4305638      Node    52.60234     +0.12347600     +0.87047495             
e   0.6905165      Incl.    8.58179     -0.06719418     +0.48637988             
P   9.33                                                                        
From 399 observations 2012 Sept. 23-2021 July 7, mean residual 0".7.            
                                                                                
    P/2012 S2 (La Sagra)                                                        
Epoch 2021 Nov. 2.0 TT = JDT 2459520.5                                          
T 2021 Oct. 31.63292 TT                                 Rudenko                 
q   1.3626943            (2000.0)            P               Q                  
n   0.10624133     Peri.  312.47369     +0.99137933     -0.05766487             
a   4.4150985      Node    51.17840     +0.10761182     +0.87060420             
e   0.6913558      Incl.    8.68538     -0.07474431     +0.48859296             
P   9.28                                                                        
From 399 observations 2012 Sept. 23-2021 July 7, mean residual 0".7.            
                                                                                
    P/2012 S2 (La Sagra)                                                        
Epoch 2031 Feb. 23.0 TT = JDT 2462920.5                                         
T 2031 Feb. 11.34577 TT                                 Rudenko                 
q   1.3357667            (2000.0)            P               Q                  
n   0.10775599     Peri.  313.50808     +0.99027672     -0.07263190             
a   4.3736272      Node    51.01739     +0.12132963     +0.86816788             
e   0.6945861      Incl.    8.77937     -0.06805251     +0.49092681             
P   9.15                                                                        
From 399 observations 2012 Sept. 23-2021 July 7, mean residual 0".7.            
                                                                                
    P/2012 S2 (La Sagra)                                                        
Epoch 2021 July 5.0 TT = JDT 2459400.5                                          
T 2021 Oct. 31.64339 TT                                 Rudenko                 
q   1.3626144            (2000.0)            P               Q                  
n   0.10625339     Peri.  312.47583     +0.99136839     -0.05782646             
a   4.4147643      Node    51.18559     +0.10775898     +0.87059309             
e   0.6913506      Incl.    8.68546     -0.07467739     +0.48859366             
P   9.28                                                                        
From 399 observations 2012 Sept. 23-2021 July 7, mean residual 0".7.            
                                                                                
Ephemeris:
Date    TT    R. A. (2000) Decl.     Delta      r    Elong.  Phase   m1
2021 06 08    20 08 04.6 -31 25 10   1.2770  2.1452   138.5    18.3  20.8
...
2021 06 23    20 10 23.6 -33 38 07   1.0791  2.0291   151.1    14.0  20.2
...
2021 07 01    20 08 46.9 -35 02 01   0.9907  1.9680   157.3    11.5  19.9
...
2021 07 07    20 06 11.7 -36 08 29   0.9327  1.9227   161.0     9.9  19.7
2021 07 08    20 05 39.1 -36 19 41   0.9238  1.9152   161.4     9.7  19.6
2021 07 09    20 05 04.6 -36 30 53   0.9151  1.9077   161.9     9.5  19.6
...
2021 07 15    20 01 01.9 -37 37 25   0.8670  1.8632   163.1     9.1  19.4
...
2021 07 23    19 54 22.1 -39 00 20   0.8143  1.8050   160.9    10.6  19.1
...
2021 08 07    19 40 47.0 -40 55 19   0.7481  1.7006   149.2    17.8  18.7

(MPEC 2021-N47、CBET 4994、oaa-comet 2018)

フラット表示 前のトピック | 次のトピック

題名 投稿者 日時
 » Comet P/2012 S2 = 2021 L5 (La Sagra) 佐藤裕久 2021-7-25 22:39

投稿するにはまず登録を
 
© 1999 Tsutomu Seki.